Hourly Data Report for September 06, 2017

All times are specified in Local Standard Time (LST). Add 1 hour to adjust for Daylight Saving Time where and when it is observed.

ALERT CLIMATE
NUNAVUT

82°30'00.000" N
62°20'00.000" W
65.40 m
2400305
71355
ZLT

Download Data

Hourly Data (September 2017)
Hourly Data Report for September 6, 2017
Temp Definition
°C
Dew Point Temp Definition
°C
Rel Hum Definition
%
Wind Dir Definition
10's deg

Wind Spd Definition
km/h
Visibility Definition
km
Stn Press Definition
kPa
Hmdx Definition


Wind Chill Definition


Weather Definition


TIME
00:00 -10.3 -14.4 72 31 3   100.48   -12 LegendNANA
01:00 -11.2 -14.8 75 29 11   100.48   -17 LegendNANA
02:00 -11.8 -14.9 78 28 12   100.48   -18 LegendNANA
03:00 -10.6 -14.4 74 29 14   100.49   -17 LegendNANA
04:00 -11.8 -15.8 72 28 16   100.47   -19 LegendNANA
05:00 -11.0 -15.3 71 27 10   100.47   -16 LegendNANA
06:00 -8.8 -14.8 62 21 5   100.48   -12 LegendNANA
07:00 -9.3 -13.7 71 26 9   100.47   -14 LegendNANA
08:00 -9.2 -15.1 63 20 4   100.46   -11 LegendNANA
09:00 -9.7 -13.2 75 28 6   100.45   -13 LegendNANA
10:00 -10.3 -13.4 78 30 2   100.44   -11 LegendNANA
11:00 -10.7 -14.0 77 33 7   100.43   -15 LegendNANA
12:00 -10.0 -12.7 81 16 2   100.42   -11 LegendNANA
13:00 -10.5 -13.7 77 1 3   100.40   -12 LegendNANA
14:00 -10.2 -13.3 78 4 3   100.44   -12 LegendNANA
15:00 -9.9 -12.1 84 28 8   100.44   -14 LegendNANA
16:00 -9.0 -11.6 82 29 7   100.44   -13 LegendNANA
17:00 -8.6 -10.7 84 20 2   100.43   -10 LegendNANA
18:00 -9.4 -11.3 86 33 8   100.43   -14 LegendNANA
19:00 -9.3 -10.9 88 34 4   100.42   -12 LegendNANA
20:00 -9.0 -10.5 89 27 3   100.40   -11 LegendNANA
21:00 -8.9 -10.4 89 0 1   100.41   -9 LegendNANA
22:00 -8.7 -10.4 87 4 4   100.42   -11 LegendNANA
23:00 -10.1 -11.2 91 8 10   100.43   -15 LegendNANA

Notes on Data Quality.

Legend

  • E = Estimated
  • M = Missing
  • NA = Not Available
  • ‡ = Partner data that is not subject to review by the National Climate Archives
Date modified: